Weather Roundup
Issued by NWS

Home | Current Version | Previous Version | Graphics & Text | Print | Product List | Glossary Off
Versions: 1 2 3 4 5 6 7 8 9 10 11 12 13 14 15 16 17 18 19 20 21 22 23 24 25 26 27 28 29 30 31 32 33 34 35 36 37 38 39 40 41 42 43 44 45 46 47 48 49 50

111
NZUS93 KARX 252210
HRRWXR

CURRENT HOURLY OBSERVATIONS ACROSS
MUCH OF THE UPPER MISSISSIPPI VALLEY
NATIONAL WEATHER SERVICE LA CROSSE WI
500 PM CDT THU MAY 25 2017


...SOUTHEAST MINNESOTA...


CITY           SKY/WX    TMP DP  RH WIND       PRES   REMARKS
ROCHESTER      LGT RAIN  67  53  61 S9        29.66S
ROCHESTER/MAYO FAIR      68  49  51 SE10      29.66S
WINONA         MOSUNNY   73  54  49 SE6       29.66S
AUSTIN         SUNNY     70  52  52 S9G17     29.64S
ALBERT LEA     SUNNY     72  50  46 SE9       29.63F
DODGE CENTER   PTSUNNY   70  48  46 SE16G23   29.65F
PRESTON        MOSUNNY   66  50  55 S7        29.68R
OWATONNA       SUNNY     70  48  46 S12       29.64S
FARIBAULT      CLOUDY    70  52  52 SE12G17   29.64F
$$

...ELSEWHERE IN MINNESOTA...


CITY           SKY/WX    TMP DP  RH WIND       PRES   REMARKS
MINNEAPOLIS    MOSUNNY   70  50  49 SE12G18   29.63F
INTNL FALLS    MOSUNNY   68  44  42 SE13G18   29.62S
DULUTH         MOSUNNY   64  47  53 E15       29.67S
RED WING       MOSUNNY   70  46  43 SE7       29.64S
REDWOOD FALLS  CLOUDY    70  48  45 S20       29.58R
MANKATO        MOSUNNY   70  51  51 SE17      29.61F
WORTHINGTON    PTSUNNY   70  49  47 S12       29.58R
FAIRMONT       PTSUNNY   70  50  49 S15       29.61R
$$

...SOUTHWEST WISCONSIN...


CITY           SKY/WX    TMP DP  RH WIND       PRES   REMARKS
LA CROSSE      SUNNY     74  55  51 SW9       29.65S
PRAIRIE DU CHI MOSUNNY   71  50  46 SW3       29.66S
BOSCOBEL       MOSUNNY   71  51  49 VRB3      29.67S
LONE ROCK      SUNNY     72  52  49 VRB3      29.66S
PLATTEVILLE    PTSUNNY   69  56  63 SE5       29.69R
FORT MC COY    PTSUNNY   71  53  52 S8        29.66S
CAMP DOUGLAS   MOSUNNY   72  53  52 E7        29.66S
MAUSTON-NEW LI CLEAR     72  53  49 SE3       29.66R
VIROQUA        FAIR      69  51  52 N5        29.68S
WIS DELLS      MOSUNNY   70  51  50 CALM      29.67S
$$

...ELSEWHERE IN WISCONSIN...


CITY           SKY/WX    TMP DP  RH WIND       PRES   REMARKS
MILWAUKEE      MOSUNNY   61  52  72 N14G23    29.67R
MADISON        MOSUNNY   69  52  54 E6        29.66S
GREEN BAY      SUNNY     69  53  56 NE16      29.67S
EAU CLAIRE     MOSUNNY   72  50  45 SW8       29.65R
BLACK RVR FLS  CLOUDY    75  45  34 E5        29.64S
MEDFORD        SUNNY     69  51  54 S8        29.67R
WAUSAU         PTSUNNY   72  49  44 SW5       29.64F
WIS RAPIDS     MOSUNNY   73  48  41 VRB5      29.67S
MARSHFIELD     MOSUNNY   71  50  47 SE6       29.65F
RICE LAKE      PTSUNNY   69  47  44 S9        29.68R
$$

...NORTHEAST IOWA...


CITY           SKY/WX    TMP DP  RH WIND       PRES   REMARKS
WATERLOO       SUNNY     72  45  37 VRB3      29.64S
DUBUQUE        MOSUNNY   68  54  60 E5        29.69R
DECORAH        SUNNY     68  50  52 S5        29.66S
MASON CITY     SUNNY     69  49  48 SE16G23   29.65S
CHARLES CITY   CLOUDY    70  48  46 S9        29.66S
OELWEIN        SUNNY     70  48  46 S7        29.67S
$$

...ELSEWHERE IN IOWA...


CITY           SKY/WX    TMP DP  RH WIND       PRES   REMARKS
DES MOINES     MOSUNNY   74  48  39 SE15      29.62F
IOWA CITY      MOSUNNY   74  50  42 VRB7      29.68S
FORT DODGE     SUNNY     72  52  49 SE14      29.61F
MARSHALLTOWN   SUNNY     72  49  44 S10       29.63F
CEDAR RAPIDS   MOSUNNY   70  52  52 VRB3      29.66S
$$

...NORTHERN ILLINOIS...


CITY           SKY/WX    TMP DP  RH WIND       PRES   REMARKS
CHICAGO-OHARE  PTSUNNY   66  52  60 NE10      29.66R
CHICAGO-MIDWAY PTSUNNY   65  53  65 N15       29.66R
MOLINE         SUNNY     72  50  45 VRB3      29.67R
ROCKFORD       MOSUNNY   71  53  52 NE6       29.69R
PEORIA         MOSUNNY   68  57  68 E8        29.69R
$$

NOTE: "FAIR" INDICATES FEW OR NO CLOUDS BELOW 12,000 FEET WITH NO
SIGNIFICANT WEATHER AND/OR OBSTRUCTIONS TO VISIBILITY. WIND
SPEEDS ARE IN MILES-PER-HOUR.




USA.gov is the U.S. government's official web portal to all federal, state and local government web resources and services.